www.pogodaiklimat.ru

ПОГОДА в Cambridge Bay Arpt

  • Прогноз погоды в Cambridge Bay Arpt
  • Монитор погоды в Cambridge Bay Arpt
  • Климат города

АРХИВ ПОГОДЫ в Cambridge Bay Arpt

Время (UTC), дата Ветер
(напр.,м/с)
 
Видим.   Явления Облачность Т
(С)
Тd
(С)
f
(%)
Тe
(С)
Тes
(С)
Комфортность P
(гПа)
Po
(гПа)
Тmin
(С)
Tmax
(С)
R
(мм)
S
(см)
18 9.01 СВ 4 8000 м ледяные иглы {снег} 4/1 1000 м
[Sc Ac trans]
-36.7 -40.5 68 -50 -50 опасность
обморожения
1016.0 1011.6 -37.7 -33.3 0.0 24
21 9.01 СЗ 3 19 км 5/5 300 м
[]
-34.9 -38.6 69 -46 -46 опасность
обморожения
1016.5 1012.1
00 10.01 СЗ 3 19 км ледяные иглы {снег} ясно -36.6 -40.4 68 -48 -48 опасность
обморожения
1016.7 1012.3 -34.5 24
03 10.01 СЗ 6 22 км ясно -35.7 -39.5 68 -50 -50 опасность
обморожения
1015.7 1011.3
06 10.01 З 5 6000 м ледяные иглы {снег} 3/3 300 м
[Sc]
-37.2 -41.1 67 -51 -51 опасность
обморожения
1014.6 1010.2 -37.9 -33.3 0.0 0
09 10.01 З 4 4800 м 4/4 300 м
[]
-36.4 -40.2 68 -49 -49 опасность
обморожения
1011.9 1007.5
12 10.01 ЮЗ 4 6000 м ледяные иглы {снег} 4/4 300 м
[Sc]
-36.2 -40.0 68 -48 -48 опасность
обморожения
1009.2 1004.8 -37.9 -33.3 0.0 24
15 10.01 Ю 2 6000 м 4/4 1500 м
[]
-37.8 -41.7 67 -47 -47 опасность
обморожения
1006.5 1002.1
18 10.01 ЮВ 4 16 км ледяные иглы {снег} 4/1 1500 м
[Sc Ac trans]
-37.1 -40.9 68 -50 -50 опасность
обморожения
1003.3 998.9 -38.9 -35.4 0.0 24
21 10.01 ЮВ 4 8000 м 6/6 1500 м
[]
-36.5 -40.3 68 -49 -49 опасность
обморожения
1000.8 996.4
00 11.01 В 8 2400 м ледяные иглы {снег} 6/1 50 м
[St Ac As]
-35.1 -38.8 69 -52 -52 опасность
обморожения
999.7 995.3 -38.9 -35.1 0.0 24
03 11.01 В 8 2400 м 8/8 50 м
[]
-35.2 -38.9 69 -52 -52 опасность
обморожения
1002.1 997.7
06 11.01 В 9 2400 м ледяные иглы {снег} 3/1 50 м
[Sc Ac trans]
-36.2 -40.0 68 -54 -54 опасность
обморожения
1006.0 1001.6 -38.9 -34.8 0.0 11
09 11.01 СВ 8 4000 м 4/4 50 м
[]
-35.7 -39.5 68 -53 -53 опасность
обморожения
1010.9 1006.5
12 11.01 СВ 7 12 км ледяные иглы {снег} ясно -35.6 -39.4 68 -51 -51 опасность
обморожения
1015.3 1010.9 -36.4 -34.8 0.0 24
15 11.01 СВ 7 9000 м ясно -36.7 -40.5 68 -53 -53 опасность
обморожения
1017.9 1013.5
18 11.01 СВ 4 19 км ледяные иглы {снег} ясно -38.2 -42.1 67 -51 -51 опасность
обморожения
1020.5 1016.1 -38.3 -35.3 0.0 24
21 11.01 СВ 5 24 км ясно -39.0 -43.0 66 -53 -53 опасность
обморожения
1021.5 1017.1
00 12.01 СВ 3 4800 м ледяные иглы {снег} ясно -39.7 -43.7 65 -51 -51 опасность
обморожения
1022.5 1018.1 -40.0 -35.4 0.0 24
03 12.01 СВ 2 2800 м 1/1 <50 м
[]
-39.8 -43.8 65 -49 -49 опасность
обморожения
1022.8 1018.3
06 12.01 СВ 3 4000 м ледяные иглы {снег} 1/1 <50 м
[St]
-40.2 -44.3 65 -51 -51 опасность
обморожения
1022.0 1017.5 -41.0 -35.3 0.0 71
09 12.01 В 3 2400 м 1/1 <50 м
[]
-40.6 -44.7 64 -51 -51 опасность
обморожения
1021.6 1017.1
12 12.01 С 2 4800 м ледяные иглы {снег} ясно -41.2 -45.3 64 -51 -51 опасность
обморожения
1020.3 1015.8 -41.8 -35.3 0.0 24
15 12.01 СВ 3 2400 м 1/1 <50 м
[]
-41.7 -45.9 63 -54 -54 опасность
обморожения
1019.1 1014.6
18 12.01 СВ 3 800 м туман {снег} 1/0
[Ac trans]
-41.3 -45.5 64 -52 -52 опасность
обморожения
1017.7 1013.2 -42.5 -39.9 0.0 24
21 12.01 В 3 8000 м 3/3 200 м
[]
-40.4 -44.5 65 -51 -51 опасность
обморожения
1016.5 1012.0
00 13.01 В 4 4800 м ледяные иглы {туман} 1/1 <50 м
[St Ci fib]
-39.2 -43.2 66 -53 -53 опасность
обморожения
1015.6 1011.1 -42.5 -38.8 0.0 24
03 13.01 В 3 4800 м 4/4 <50 м
[]
-39.1 -43.1 66 -51 -51 опасность
обморожения
1014.1 1009.7
06 13.01 СВ 4 2800 м ледяные иглы {снег} 1/0
[Ci fib]
-39.7 -43.8 65 -52 -52 опасность
обморожения
1013.5 1009.1 -42.5 -38.4 0.0 24
09 13.01 В 4 3200 м ясно -39.7 -43.8 65 -53 -53 опасность
обморожения
1013.2 1008.8
12 13.01 СВ 4 2400 м ледяные иглы {снег} ясно -40.0 -44.1 65 -54 -54 опасность
обморожения
1013.3 1008.9 -40.7 -38.4 0.0 24
15 13.01 СВ 2 2400 м ясно -40.5 -44.6 65 -50 -50 опасность
обморожения
1013.1 1008.7
18 13.01 СВ 3 1200 м ледяные иглы {снег} 3/1 100 м
[St Ac As]
-39.8 -43.9 65 -52 -52 опасность
обморожения
1013.5 1009.1 -41.7 -39.1 0.0 24
21 13.01 С 3 1600 м 3/3 100 м
[]
-39.9 -44.0 65 -52 -52 опасность
обморожения
1014.1 1009.7
00 14.01 В 3 4000 м ледяные иглы {снег} 4/4 100 м
[Sc]
-38.1 -42.1 66 -50 -50 опасность
обморожения
1014.6 1010.2 -41.0 -38.1 0.0 24
03 14.01 СВ 3 4800 м 9/9 <50 м
[]
-38.0 -42.0 66 -49 -49 опасность
обморожения
1014.6 1010.2
06 14.01 СВ 3 6000 м ледяные иглы {снег} 10/8 <50 м
[Sc Ac trans]
-36.1 -39.9 68 -46 -46 опасность
обморожения
1015.0 1010.6 -41.0 -36.0 0.0 24
09 14.01 С 4 9000 м 9/9 <50 м
[]
-37.1 -41.0 67 -49 -49 опасность
обморожения
1015.6 1011.2
12 14.01 С 4 24 км {снег} 6/3 300 м
[Sc Ac trans]
-35.8 -39.6 68 -48 -48 опасность
обморожения
1015.6 1011.2 -38.9 -36.0 0.0 24
15 14.01 СВ 2 24 км 5/5 300 м
[]
-35.6 -39.4 68 -44 -44 опасность
обморожения
1015.7 1011.3
18 14.01 С 1 24 км ледяные иглы 9/5 300 м
[Sc Ac trans]
-34.5 -38.2 69 -39 -39 опасность
обморожения
1015.4 1011.0 -40.2 -34.5 0.0 24
21 14.01 С 1 24 км 9/9 300 м
[]
-34.3 -38.0 69 -39 -39 опасность
обморожения
1014.8 1010.4
00 15.01 В 1 24 км ледяные иглы {снег} 1/0 2000 м
[Ac trans]
-35.4 -39.2 68 -40 -40 опасность
обморожения
1014.6 1010.2 -37.4 -34.1 0.0 24
03 15.01 С 1 24 км 1/0 2000 м
[]
-36.6 -40.4 68 -38 -38 опасность
обморожения
1013.9 1009.5
06 15.01 С 2 24 км ледяные иглы {снег} ясно -39.9 -44.0 65 -48 -48 опасность
обморожения
1013.4 1009.0 -40.0 -34.1 0.0 24
09 15.01 С 2 12 км ясно -38.7 -42.7 66 -48 -48 опасность
обморожения
1013.3 1008.9
12 15.01 С 1 4800 м ледяные иглы {снег} ясно -39.4 -43.4 66 -41 -41 опасность
обморожения
1013.2 1008.8 -40.9 -34.1 0.0 24
15 15.01 З 1 9000 м ясно -39.6 -43.6 65 -45 -45 опасность
обморожения
1013.1 1008.7
18 15.01 СВ 2 4800 м ледяные иглы {снег} 5/0
[Ac trans]
-41.0 -45.1 64 -49 -49 опасность
обморожения
1012.4 1008.0 -41.9 -38.0 0.0 24
21 15.01 ЮВ 2 2400 м 5/0
[]
-39.5 -43.5 65 -47 -47 опасность
обморожения
1012.5 1008.1
00 16.01 В 3 22 км ледяные иглы {снег} 3/0
[Ac trans Ci fib]
-38.4 -42.4 66 -50 -50 опасность
обморожения
1011.3 1006.9 -41.9 -37.2 0.0 24
03 16.01 ЮВ 4 4800 м 3/0
[]
-35.4 -39.2 68 -47 -47 опасность
обморожения
1009.7 1005.3
06 16.01 ЮВ 8 4800 м ледяные иглы {снег} 8/0
[Ac As]
-32.3 -35.9 70 -49 -49 опасность
обморожения
1005.9 1001.5 -41.9 -32.3 0.0 61
09 16.01 ЮВ 11 3200 м 9/0
[]
-29.4 -32.8 72 -47 -47 опасность
обморожения
1001.1 996.8
12 16.01 ЮВ 11 800 м слабый снег {метель} 8/0
[Ac As]
-27.0 -30.2 74 -43 -43 опасность
обморожения
996.8 992.5 -38.4 -32.3 0.0 23
15 16.01 ЮВ 7 4000 м 10/0
[]
-24.4 -27.4 76 -37 -37 опасность
обморожения
992.7 988.4

 

Местоположение метеостанции Cambridge Bay Arpt (Канада): широта 69.10 долгота -105.10 высота над уровнем моря 27 м.

В архиве по умолчанию представлена погода в Cambridge Bay Arpt за последнюю неделю. Архивные данные за месяц целиком и за предыдущие месяцы, начиная с января 2011 года, Вы можете получить, выбрав интересующий диапазон дат из раскрывающегося списка и нажав кнопку "Ввод!".

Внимание! Время в таблицах - всемирное. Для получения местного времени необходимо прибавить поправку, которая в Cambridge Bay Arpt равна -7 ч.

Ветер - указаны скорость ветра в м/с - средняя за 10 мин, порывы в срок и между сроками (в фигурных скобках) и направление, откуда дует ветер: С - северный, СВ - северо-восточный, В - восточный, ЮВ - юго-восточный, Ю - южный, ЮЗ - юго-западный, З - западный, СЗ - северо-западный.
Видимость - горизонтальная дальность видимости в метрах или километрах. При видимости от 1 до 10 км при отсутствии осадков обычно наблюдается дымка, при ухудшении видимости до 1 км и менее - туман. В сухую погоду видимость может ухудшаться дымом, пылью или мглою.
Явления - указаны атмосферные явления, наблюдавшиеся в срок или в последний час перед сроком; фигурными скобками обозначены явления, наблюдавшиеся между сроками (за 1-3 часа до срока); квадратными скобками обозначены град или гололедные отложения с указанием их диаметра в мм.
Облачность - указаны через наклонную черту общая и нижняя облачность в баллах и высота нижней границы облаков в метрах; квадратными скобками обозначены формы облаков: Ci - перистые, Cs - перисто-слоистые, Cc - перисто-кучевые, Ac - высококучевые, As - высокослоистые, Sc - слоисто-кучевые, Ns - слоисто-дождевые, Cu - кучевые, Cb - кучево-дождевые. Подробнее классификацию облаков см. в Атласе облаков (PDF).
T - Температура воздуха - температура, измеренная на высоте 2 м над землей.
Td - Температура точки росы - температура, при понижении до которой содержащийся в воздухе водяной пар достигнет насыщения.
f - Относительная влажность воздуха - влажноcть воздуха, измеренная на высоте 2 м над землей.
Te - Эффективная температура - температура, которую ощущает одетый по сезону человек в тени. Характеристика душности погоды. При расчете учитывается влияние влажности воздуха и скорости ветра на теплоощущения человека.
Tes - Эффективная температура на солнце - температура, которую ощущает человек, с поправкой на солнечный нагрев. Характеристика знойности погоды. Зависит от высоты солнца над горизонтом, облачности и скорости ветра. Ночью, в пасмурную погоду, а также при ветре 12 м/с и более поправка равна нулю.
P - Атмосферное давление - приведенное к уровню моря атмосферное давление.
Po - Атмосферное давление - измеренное на уровне метеостанции атмосферное давление.
Tmin - Минимальная температура - минимум температуры воздуха на высоте 2 м над землей.
Tmax - Максимальная температура - максимум температуры воздуха на высоте 2 м над землей.
R - Количество осадков - Количество выпавших осадков, мм. При наведении курсора мыши на число - период времени, за который выпало указанное количество осадков.
S - Снежный покров - Высота снежного покрова, см. При наведении курсора мыши на число - состояние снежного покрова и степень покрытия местности в баллах.